Location: Home
(42.5358°N, 72.7383°W)
Time: 18:04:51
(UTC-05:00)

SR - Pass Details

Date: 10 December 2021
Orbit: 582 x 872 km, 66.7° (Epoch: 20 January)

Event Time Altitude Azimuth Distance (km) Brightness Sun altitude
Exits shadow 04:58:18 - 6° (N) 2,007 ? -23.4°
Reaches altitude 10° 04:58:37 10° 9° (N) 1,940 ? -23.4°
Maximum altitude 05:01:00 14° 43° (NE) 1,697 ? -22.9°
Drops below altitude 10° 05:03:25 10° 76° (ENE) 1,991 ? -22.5°
Sets 05:06:45 0° 101° (E) 2,949 ? -21.9°
